Погода Шамахы

Погода Шамахы : погода сейчас, прогноз погоды и архив. Всё, что Вы хотите узнать о погоде Шамахы!

Поиск расширенной информации на нашем сайте:

Другие новости

Новости СМИ2

Главная страница сайта

Новости сайта

03.07.2017

Напоминаем, что на нашем специализированном сайте Метеоцентр.Азия вы можете получить высокодетализированные автоматические прогнозы погоды по пунктам России, СНГ и мира в авиационном формате (включающие направление и скорость ветра, видимость, явления погоды, количество и форму облачности, нижнюю и верхнюю границу облачности).


Погода Шамахы - сегодня

Время (UTC), дата Ветер
(°,м/с) 
Видим.   Явления Облачность Т
(°С)
Тd
(°С)
f(%) Тe
(°С)
Pmin
(гПа)
dP
(гПа)
Po
(мм)
O2
(г/м3)
Тmin Tmax R s Состояние
почвы
09 22.11.17 160 (Ю) 20000 м    6/6 600 м 
[Sc]
+12.2 +5.6 64 +13  1006.3  1.2  683  262           
12 22.11.17 280 (З) 20000 м    10/10 600 м 
[Sc]
+8.4 +5.5 82 +7  1008.9  1.2  684  266           
15 22.11.17 160 (Ю) 20000 м    10/10 600 м 
[Sc]
+7.4 +5 85 +8  1011.9  1.8  685  268           
18 22.11.17 100 (В) 4000 м  дымка{дождь}  10/10 600 м 
[Sc]
+5.7 +4.3 91 +7  1014.2  1.5  687  270    +12.5       
21 22.11.17 тихо ()   20000 м    10/10 600 м 
[Sc]
+5 +2 81 +5  1014.6  0.4  687  271           
00 23.11.17 тихо ()   4000 м  дождь  10/10 300 м 
[Ns]
+1.5 +1 96 +2  1006.3  0.2  687  275           
03 23.11.17 240 (ЮЗ) 4000 м  слаб. снег{дождь}  10/10 300 м 
[Ns]
+0.2 -0.1 98 +1  1007.4  0.4  687  277           
06 23.11.17 тихо ()   0200 м  слаб. снег{туман}  ?/?  
+0.1 -0.2 98 1018.6  1.2  688  277  +0       
09 23.11.17 тихо ()   0200 м  туман{снег}  ?/?  
+0.8 +0.5 98 +1  1017.6  -0.3  688  276           
12 23.11.17 260 (З) 2000 м  дымка{туман}  9/9 600 м 
[Sc]
+2 +1.5 96 -1  1017  -0.6  688  275           
15 23.11.17 250 (З) 0200 м  туман  ?/?  
+1.6 +1.3 98 -2  1016.2  688  275           
18 23.11.17 280 (З) 20000 м  {туман}  3/0 верхняя 
[Ci fib]
+0.9 -1.7 83 -1  1017.7  0.7  688  276    +2.5     
21 23.11.17 030 (СВ) 20000 м    8/8 600 м 
[Sc]
+0.1 -2 86 +1  1020.2  1.2  689  278           
00 24.11.17 070 (В) 20000 м    4/0 верхняя 
[Ci ing]
+0.5 -4.2 71 1020.7  0.5  689  278           
03 24.11.17 тихо ()   20000 м    3/0 верхняя 
[Ci fib]
+1.2 -3.7 70 +1  1020.1  0.2  689  277           
06 24.11.17 070 (В) 20000 м    3/0 верхняя 
[Ci fib]
+4.2 -2.3 63 +5  1020.6  1.2  690  274  -0.2         
09 24.11.17 200 (Ю) 20000 м    8/8 600 м 
[Sc]
+4.5 -0.6 69 +3  1020  0.2  691  274           
12 24.11.17 230 (ЮЗ) 20000 м    10/10 600 м 
[Sc]
+3.5 +0.9 83 +2  1020.7  -0.1  690  274           
15 24.11.17 270 (З) 4000 м  дымка  10/10 600 м 
[Sc]
+1.7 +0.6 92 +1  1022.2  0.8  691  276           
18 24.11.17 230 (ЮЗ) 4000 м  дымка  10/10 600 м 
[Sc]
+0.9 -0.2 92 +2  1022.7  0.5  691  278    +4.5       
21 24.11.17 280 (З) 4000 м  дымка  10/10 600 м 
[Sc]
+0.2 -0.7 94 +1  1023.2  -0.3  691  278           
00 25.11.17 070 (В) 20000 м    10/10 600 м 
[Sc]
-0.4 -3.2 81 1023.8  0.6  692  279           
03 25.11.17 090 (В) 20000 м    3/0 верхняя 
[Ci fib]
-0.2 -4.3 74 1025.2  0.9  692  280           
06 25.11.17 210 (ЮЗ) 20000 м    3/0 верхняя 
[Ci ing]
+2.6 -4.8 58 +3  1024.9  1.2  693  277  -0.1         
09 25.11.17 180 (Ю) 20000 м    3/0 верхняя 
[Ci ing]
+5.6 -3.9 50 +5  1026.1  1.9  695  275           
Время (UTC), дата Ветер
(°,м/с) 
Видим.   Явления Облачность Т
(°С)
Тd
(°С)
f(%) Тe
(°С)
Pmin
(гПа)
dP
(гПа)
Po
(мм)
O2
(г/м3)
Тmin Tmax R s Состояние
почвы

Для получения пояснительной информации подведите курсор к названию столбца.

ПОГОДА Шамахы - архив

Всё, что Вы хотите узнать о погоде Шамахы - удобно и подробно!

Выберите нужную дату (начиная с 1 января 2015* года) и нажмите кнопку "Найти".
Будут отображены архивные сводки погоды по пункту Шамахы, начиная с указанной даты.


Отображать данные в формате CSV (для использования в таблицах Excel)


Внимание! Наш архив погоды предназначен исключительно для личного некоммерческого использования в познавательных целях. Если Вам необходимы официальные справки о состоянии погоды (для производственных, юридических, коммерческих и т.п. целей), обращайтесь в органы Росгидромета.

*Примечание: данная дата относится к архиву по метеостанциям СССР (Россия, СНГ, Балтия).
Архив по метеостанциям Зарубежной Европы и Азии (кроме Китая) хранится 10 дней, по другим регионам земного шара (Китай, Африка, Америка, Австралия, Океания) - 1 день.

Шамахы - район местоположения метеостанции


Название, широта, долгота, высота метеостанции:
Шамахы 40.6°ш. 48.6°д. 749 м над ур. моря [Азербайджан]

Дополнительная информация

В oтличие oт бoльшинства пoгoдных сайтoв мы публикуем пoдрoбную метеoинфoрмацию в детальнoм прoфессиoнальнoм фoрмате.

Характеристики температуры и влажнoсти вoздуха измеряются на высoте 2 м в тени вдали oт зданий и деревьев.
Скoрoсть ветра измеряется на высoте 10 м (на урoвне рoста челoвека скoрoсть ветра ниже в 1.5-2 раза). Если метеoстанция нахoдится в гoрoде или в лесу, тo скoрoсть ветра занижена на 2-4 м/с пo сравнению с oткрытым местoм. Скoрoсть ветра над акватoриями крупных рек и oзёр, а также на вершинах хoлмoв на 2-5 м/с выше, чем в oбычных услoвиях.
Атмoсфернoе давление в разных тoчках местнoсти мoжет значительнo oтличаться oт давления на метеoстанции, в зависимoсти oт услoвий рельефа (при пoдъёме на 10 м давление пoнижается примернo на 1 мм рт.ст.).